Simultaneous Nadir Overpasses (SNOs) Predictions

Prediction of SNOs between METOP-A and TERRA Satellite Orbit:

Table of predicted SNOs for the next 14.0 days since TLE Epoch: 6/6/2015
Index Date (METOP-A) Time (METOP-A) Lat,Lon (METOP-A) SZA (METOP-A ) Date (TERRA) Time (TERRA) Lat,Lon (TERRA) SZA (TERRA ) Distance(km) Time Diff (sec)
1 06/08/2015 09:03:23 81.34, 92.04 61.54 06/08/2015 09:03:47 81.34, 92.05 61.55 0.75 24
2 06/08/2015 09:54:02 -81.35,-100.04 118.40 06/08/2015 09:53:13 -81.35,-100.06 118.42 0.38 49
3 06/11/2015 04:37:41 81.35, 158.88 61.35 06/11/2015 04:38:02 81.35, 158.78 61.35 1.72 21
4 06/11/2015 05:28:21 -81.35, -33.57 118.63 06/11/2015 05:27:29 -81.35, -33.69 118.68 2.07 52
5 06/14/2015 00:12:02 81.34,-135.12 61.10 06/14/2015 00:12:19 81.34,-134.97 61.13 2.42 17
6 06/14/2015 01:02:41 -81.35, 32.86 118.82 06/14/2015 01:01:45 -81.36, 32.97 118.83 2.04 56
7 06/16/2015 19:46:21 81.35, -68.37 61.01 06/16/2015 19:46:35 81.35, -68.44 61.01 1.18 14
8 06/16/2015 20:37:01 -81.35, 99.25 118.96 06/16/2015 20:36:02 -81.34, 99.15 119.01 1.65 59
9 06/19/2015 15:20:40 81.34, -2.06 60.91 06/19/2015 15:20:50 81.35, -2.00 60.92 1.02 10




NCC Satellite Simultaneous Nadir Overpasses (SNOs) Prediction Service
